Wind_Speed
9 9 8 8 8 9 8 8 7 7 6 6 6 7 8 9 11 14 15 18 20 22 24 27 29 31 32 34 35 37 38 40 40 41 42 42 43 43 44 44 44 44 45 45
9 8 8 8 8 7 7 6 7 6 6 6 7 8 10 12 14 16 18 20 22 25 27 30 32 34 35 36 38 39 41 42 43 44 44 45 45 46 46 46 46 46 46 45
8 7 7 6 6 6 5 5 5 6 6 7 8 10 12 14 16 18 20 22 25 26 28 30 33 35 37 38 39 41 42 43 44 45 45 46 46 46 47 47 47 47 47 46
6 6 5 5 4 4 3 3 3 4 5 6 8 10 12 15 17 20 22 25 28 29 31 33 35 37 39 40 41 42 42 44 44 45 45 45 46 46 47 47 47 46 46 46
5 5 4 3 2 2 2 3 3 4 5 6 8 11 13 15 18 20 23 26 29 31 33 35 37 39 40 41 42 42 43 44 45 45 45 45 45 45 46 47 46 46 46 45
6 5 4 3 2 1 1 2 4 6 7 9 10 12 15 17 20 22 24 27 29 32 34 36 38 39 41 42 43 43 44 44 45 46 46 46 46 46 46 46 46 46 45 45
6 5 5 4 4 4 4 4 5 7 9 11 12 14 16 18 21 23 26 29 31 33 35 36 38 40 42 43 44 45 47 47 47 47 46 46 46 46 45 45 46 46 46 45
5 4 4 4 4 5 5 6 7 8 10 12 14 16 18 21 23 26 28 31 32 34 36 38 39 41 42 43 44 45 46 47 47 47 47 47 47 47 46 46 45 45 45 45
4 4 4 4 5 5 6 7 8 10 12 14 16 18 20 23 25 28 30 32 33 35 37 39 40 42 43 43 44 45 45 45 45 45 45 45 45 46 45 45 44 44 44 44
2 3 4 5 6 7 8 9 11 12 14 16 18 20 22 25 27 29 31 32 34 35 37 38 40 42 43 43 43 43 43 43 43 43 43 43 44 44 44 44 43 43 42 43
3 4 5 7 8 9 11 12 13 15 17 18 20 22 24 26 28 30 32 33 34 35 37 38 40 41 42 42 41 42 42 42 42 42 42 43 43 43 43 43 43 42 42 42
5 6 7 9 10 12 13 14 16 18 19 21 23 25 27 29 31 33 34 35 36 37 38 40 41 41 41 41 41 41 41 41 41 41 41 41 42 42 42 42 42 42 42 42
7 8 10 11 13 14 16 17 19 20 22 24 25 28 30 32 33 35 36 37 38 39 40 41 41 41 41 41 41 41 41 40 40 39 39 39 40 41 41 41 41 41 41 41
10 11 12 14 15 17 18 20 22 23 25 26 28 31 33 35 36 37 38 38 39 40 41 42 42 42 41 41 41 41 41 40 39 39 38 38 38 39 39 39 40 40 40 40
12 13 14 16 18 19 21 23 24 26 28 30 32 34 36 37 38 39 40 40 41 42 43 43 43 43 42 42 41 40 40 40 39 38 37 36 37 37 38 38 38 38 39 40
14 15 16 18 20 21 23 25 27 29 31 33 35 36 38 39 40 42 42 42 43 43 44 44 43 43 42 42 42 41 41 40 39 38 37 37 36 36 36 37 37 37 38 39
16 17 18 20 22 23 26 28 30 32 33 35 37 39 40 41 42 43 44 44 44 45 45 45 44 44 43 42 42 41 40 40 39 38 38 37 36 35 35 35 37 37 37 38
17 19 20 22 24 25 28 30 32 34 35 38 40 41 42 43 44 44 45 45 46 46 46 46 45 44 42 42 41 40 39 38 37 36 36 35 34 34 34 35 35 35 36 37
19 21 22 24 26 28 30 32 34 36 38 40 42 42 43 44 45 46 46 46 47 47 47 46 45 43 42 40 39 38 37 35 34 34 33 33 33 34 34 34 34 34 35 36
21 23 24 26 27 30 32 34 36 38 40 42 43 44 45 46 47 47 47 47 47 48 47 46 44 43 41 39 37 35 33 32 31 31 32 31 32 33 33 33 33 34 34 35
23 25 26 27 29 31 33 36 38 40 42 44 45 45 46 47 48 49 49 48 48 48 47 46 44 42 40 39 36 34 32 31 30 29 30 30 31 31 32 32 32 33 33 34
25 26 28 29 31 33 35 37 40 42 44 45 46 47 48 49 50 50 50 49 49 48 47 45 44 42 40 38 35 33 32 30 29 29 28 29 29 29 30 31 31 32 32 33
27 28 29 31 33 35 37 39 41 43 45 46 47 48 49 50 51 52 51 50 49 48 47 45 44 43 40 37 35 33 31 30 28 28 27 27 27 27 27 28 29 30 31 32
28 29 31 32 34 36 38 40 43 45 46 48 48 49 50 51 52 53 52 51 50 48 47 46 45 43 40 37 34 32 30 28 27 26 25 25 24 25 25 26 26 28 29 30
29 30 32 34 36 37 39 42 44 46 48 49 50 50 51 52 53 53 52 51 50 49 48 47 45 42 39 36 33 31 28 27 26 25 24 23 22 23 23 23 24 25 26 27
30 32 33 35 37 39 41 43 45 48 49 50 51 52 53 54 54 53 53 51 51 49 48 46 44 41 38 35 32 30 28 26 25 23 22 21 21 22 22 22 23 23 25 25
32 33 35 37 39 40 42 44 47 49 50 51 52 53 53 54 54 54 53 51 50 49 47 45 42 39 37 34 31 28 27 25 23 22 21 20 20 20 21 21 22 23 23 24
Wind_Direction
125 134 144 153 157 158 161 166 173 180 193 203 211 221 233 243 249 254 258 260 263 265 266 266 266 267 267 267 267 267 267 267 266 266 265 265 265 264 263 262 262 262 263 263
117 124 132 142 151 159 167 178 188 199 212 224 237 245 254 261 265 267 269 270 271 271 270 269 268 269 270 270 269 269 268 268 268 267 267 266 266 265 263 263 262 262 262 262
114 119 125 133 143 155 167 178 195 215 228 240 250 257 263 266 271 275 277 277 277 276 275 274 273 273 273 273 272 270 269 268 268 268 267 267 266 265 264 263 262 261 261 261
114 116 116 127 145 160 177 197 215 232 246 257 264 269 272 273 275 278 280 280 280 279 278 277 276 276 275 275 273 272 270 270 269 269 268 267 266 265 263 262 262 261 262 261
110 113 111 111 123 152 196 222 243 254 264 273 280 283 284 285 286 287 286 285 284 282 280 279 278 277 276 275 274 272 272 271 271 270 269 269 267 266 264 263 262 261 261 261
96 93 93 79 61 27 333 281 284 281 284 288 290 290 292 293 294 294 292 290 288 285 284 283 281 280 278 277 275 274 273 273 272 271 270 269 269 266 265 263 262 261 260 259
87 80 69 53 36 16 353 335 316 305 301 300 300 299 299 298 298 297 296 295 292 290 287 285 283 282 280 278 277 275 274 273 273 272 270 269 267 265 264 263 261 260 259 258
82 72 59 34 17 6 354 341 330 322 315 309 307 306 305 305 304 304 302 299 296 293 290 287 285 283 282 281 279 277 276 274 273 272 270 269 267 264 263 262 261 259 258 257
70 60 44 21 7 352 339 332 326 322 318 314 311 309 307 306 306 306 304 302 299 297 294 290 288 286 284 283 281 280 278 277 274 272 270 268 266 264 262 261 260 259 258 257
42 20 10 359 351 343 334 327 323 321 319 317 315 313 311 310 310 309 308 305 303 300 298 295 293 291 289 287 285 283 281 278 275 273 270 268 265 264 262 261 260 259 258 257
330 335 337 339 337 334 330 326 323 321 319 317 316 315 314 313 313 312 310 308 305 303 300 298 297 296 293 290 288 286 283 280 276 273 270 267 264 263 262 260 259 258 257 256
302 313 319 323 324 324 324 323 322 321 320 319 317 316 316 315 314 313 311 309 306 304 303 302 300 298 295 293 291 289 286 282 278 274 272 268 264 262 261 258 257 256 255 254
294 304 312 317 319 320 321 321 321 321 320 319 319 319 318 318 316 315 313 311 309 306 305 304 302 300 297 295 293 290 288 284 280 277 273 269 264 261 259 258 256 254 253 254
293 300 307 313 316 318 319 320 321 321 321 321 321 321 320 320 319 317 316 314 312 310 307 305 303 301 298 296 294 292 289 285 281 278 273 269 266 262 258 256 255 253 251 251
292 298 304 311 315 317 318 319 320 321 322 321 322 321 321 321 320 319 317 316 314 312 309 307 304 302 300 297 294 292 289 286 283 278 273 269 266 263 260 257 255 253 251 249
291 296 303 309 312 315 317 319 320 321 321 322 322 322 322 321 321 319 319 318 316 314 312 310 308 305 301 298 294 291 289 286 283 278 273 269 266 263 260 258 256 253 251 250
289 296 302 307 311 314 317 319 320 320 321 321 322 322 322 322 322 321 320 319 318 316 315 313 311 308 304 299 295 292 290 287 282 277 273 271 267 263 261 259 256 254 251 249
290 296 301 306 310 313 317 319 319 320 321 321 322 323 323 323 322 322 321 320 319 318 317 315 314 312 308 303 298 294 292 289 283 277 273 270 267 264 261 258 257 254 252 250
289 295 301 305 309 312 315 317 319 320 321 321 322 323 323 323 323 323 322 321 321 320 319 317 316 314 311 307 302 297 294 290 285 279 273 269 266 264 261 259 257 254 252 250
289 295 300 304 308 311 314 316 318 319 321 322 323 323 323 323 323 323 323 322 322 321 321 319 318 316 313 310 305 301 297 293 287 280 275 270 266 262 261 259 257 254 251 249
289 295 300 304 308 311 313 316 318 319 320 321 322 323 323 323 323 323 323 323 322 322 321 320 319 318 315 312 307 302 298 293 288 283 278 274 269 265 262 259 256 253 250 248
290 295 299 303 307 310 313 316 318 319 320 321 322 323 323 323 323 323 323 322 322 322 321 320 319 319 317 313 308 303 298 294 289 285 281 276 271 267 263 259 254 252 250 248
290 295 299 303 307 310 313 315 317 319 321 321 321 322 323 323 323 323 322 322 322 321 320 320 319 318 317 313 309 304 299 294 290 287 283 278 273 267 263 258 253 250 249 248
290 295 299 303 306 309 312 314 317 319 320 321 321 322 322 322 322 322 322 321 321 320 319 319 318 317 316 313 309 305 300 295 291 287 284 280 274 267 261 257 253 250 248 248
289 294 298 302 306 309 311 314 317 319 320 321 321 321 322 322 322 322 322 321 320 319 318 318 318 317 315 312 309 305 300 296 292 288 284 280 274 267 261 256 252 250 248 248
289 293 298 302 305 308 311 314 317 319 320 321 320 321 321 322 322 322 321 321 320 319 318 317 317 316 314 311 307 303 300 296 292 289 285 279 273 266 261 255 252 250 248 247
289 293 298 302 305 308 311 314 316 318 320 320 320 320 321 321 321 321 321 321 320 320 319 318 317 315 314 311 306 301 298 294 290 287 284 278 272 265 259 255 252 251 251 251
Height
5628 5629 5631 5632 5634 5636 5638 5639 5641 5642 5644 5645 5646 5648 5649 5651 5652 5654 5655 5656 5657 5657 5657 5657 5657 5657 5656 5656 5656 5655 5655 5655 5655 5655 5656 5657 5657 5658 5659 5660 5661 5663 5664 5665
5629 5630 5631 5633 5634 5636 5637 5639 5640 5641 5643 5643 5645 5646 5647 5648 5649 5650 5650 5650 5650 5650 5649 5649 5648 5648 5647 5646 5645 5645 5644 5643 5643 5643 5644 5644 5644 5645 5646 5647 5648 5650 5651 5652
5630 5631 5632 5634 5634 5635 5637 5638 5639 5640 5642 5642 5643 5644 5644 5645 5645 5645 5645 5644 5643 5642 5641 5640 5639 5638 5636 5635 5634 5633 5632 5632 5631 5631 5631 5631 5631 5632 5633 5634 5635 5636 5637 5638
5631 5633 5633 5636 5634 5635 5636 5637 5638 5638 5639 5640 5640 5640 5641 5641 5641 5640 5639 5637 5636 5634 5632 5631 5629 5627 5625 5623 5622 5621 5620 5619 5618 5618 5618 5618 5618 5619 5619 5620 5621 5623 5624 5625
5632 5632 5633 5634 5634 5634 5635 5636 5636 5637 5637 5637 5637 5637 5637 5636 5635 5634 5632 5630 5628 5626 5624 5621 5619 5616 5614 5611 5609 5608 5607 5606 5605 5605 5605 5605 5605 5605 5605 5606 5608 5609 5610 5611
5632 5632 5633 5635 5634 5633 5635 5635 5634 5634 5634 5634 5634 5633 5633 5631 5629 5627 5625 5622 5620 5617 5614 5611 5608 5605 5602 5600 5597 5596 5594 5593 5592 5591 5591 5591 5590 5591 5591 5592 5593 5595 5596 5598
5632 5633 5633 5634 5633 5633 5634 5635 5632 5632 5631 5630 5630 5629 5628 5625 5623 5620 5618 5614 5611 5608 5604 5601 5597 5594 5591 5588 5585 5583 5581 5579 5578 5577 5577 5576 5576 5576 5577 5578 5579 5581 5582 5584
5633 5633 5636 5633 5632 5633 5633 5631 5630 5629 5628 5627 5626 5624 5622 5619 5617 5614 5610 5606 5602 5598 5594 5590 5586 5583 5579 5576 5573 5570 5568 5566 5564 5563 5562 5562 5562 5562 5563 5564 5565 5566 5568 5570
5634 5635 5633 5632 5632 5631 5630 5629 5628 5626 5625 5623 5621 5619 5617 5614 5610 5606 5602 5597 5593 5588 5583 5579 5575 5570 5566 5563 5559 5556 5553 5551 5549 5548 5547 5547 5547 5547 5548 5550 5551 5553 5554 5556
5632 5632 5632 5631 5630 5629 5628 5627 5625 5624 5622 5619 5617 5614 5611 5607 5603 5598 5594 5589 5583 5578 5573 5568 5563 5557 5553 5549 5545 5542 5539 5536 5534 5533 5532 5532 5532 5533 5534 5536 5537 5539 5540 5542
5631 5631 5630 5629 5628 5627 5625 5623 5622 5620 5617 5614 5611 5608 5604 5600 5595 5590 5585 5579 5574 5568 5562 5557 5551 5545 5540 5536 5532 5528 5525 5522 5520 5519 5518 5518 5518 5519 5520 5521 5523 5525 5526 5528
5629 5629 5628 5627 5625 5623 5622 5620 5617 5615 5612 5609 5605 5601 5597 5592 5587 5581 5575 5570 5564 5558 5552 5546 5540 5534 5528 5524 5519 5515 5511 5508 5505 5504 5503 5503 5503 5504 5505 5507 5508 5510 5512 5515
5626 5625 5624 5623 5621 5619 5617 5615 5612 5609 5606 5602 5598 5594 5589 5583 5578 5572 5566 5559 5553 5547 5541 5534 5528 5522 5516 5511 5507 5502 5498 5494 5492 5490 5488 5488 5488 5489 5491 5492 5494 5496 5498 5501
5621 5621 5620 5618 5617 5614 5612 5609 5606 5603 5599 5595 5590 5585 5580 5574 5568 5562 5555 5549 5542 5535 5529 5522 5516 5510 5504 5498 5493 5489 5484 5481 5478 5476 5475 5474 5474 5475 5476 5478 5480 5482 5485 5487
5617 5616 5615 5614 5611 5609 5606 5603 5600 5596 5592 5587 5582 5577 5571 5564 5558 5552 5545 5538 5531 5524 5517 5510 5503 5497 5491 5485 5480 5475 5471 5468 5465 5463 5461 5461 5461 5462 5463 5464 5466 5469 5471 5474
5612 5611 5610 5608 5606 5603 5600 5597 5593 5589 5584 5579 5573 5567 5561 5554 5548 5541 5534 5527 5519 5512 5504 5497 5490 5484 5477 5472 5467 5462 5458 5454 5451 5449 5448 5448 5448 5449 5450 5451 5453 5456 5458 5460
5607 5605 5604 5602 5599 5597 5593 5590 5586 5581 5576 5570 5564 5558 5551 5544 5537 5530 5523 5515 5507 5500 5492 5485 5478 5471 5464 5458 5453 5449 5445 5441 5438 5435 5435 5434 5435 5436 5437 5438 5440 5443 5445 5447
5601 5599 5598 5595 5593 5590 5586 5582 5578 5573 5567 5561 5555 5548 5541 5534 5527 5520 5512 5504 5496 5488 5480 5473 5465 5458 5451 5445 5439 5435 5431 5427 5424 5422 5421 5422 5422 5423 5424 5426 5428 5430 5433 5435
5594 5592 5590 5588 5585 5582 5578 5574 5569 5564 5558 5552 5546 5539 5531 5524 5517 5509 5501 5493 5485 5478 5469 5461 5454 5446 5439 5432 5426 5422 5418 5415 5412 5410 5409 5409 5410 5411 5412 5414 5416 5418 5420 5423
5587 5585 5583 5580 5577 5574 5570 5566 5561 5555 5549 5543 5536 5529 5521 5514 5506 5499 5491 5483 5475 5467 5459 5451 5443 5435 5428 5422 5416 5411 5407 5404 5401 5399 5398 5398 5398 5399 5400 5402 5404 5406 5408 5411
5579 5577 5575 5573 5569 5566 5562 5557 5552 5546 5540 5533 5526 5519 5512 5504 5496 5488 5480 5473 5464 5456 5448 5440 5433 5425 5418 5412 5406 5401 5397 5394 5391 5389 5387 5387 5387 5388 5389 5390 5392 5394 5397 5399
5571 5569 5567 5564 5561 5557 5553 5548 5543 5537 5530 5523 5516 5509 5502 5494 5486 5478 5470 5462 5454 5446 5438 5430 5423 5416 5409 5402 5396 5391 5387 5384 5381 5379 5378 5377 5377 5377 5378 5379 5381 5383 5385 5388
5563 5561 5558 5555 5552 5548 5543 5538 5533 5527 5520 5513 5506 5499 5491 5483 5476 5468 5460 5451 5443 5435 5428 5420 5413 5406 5399 5392 5387 5382 5378 5374 5372 5370 5368 5367 5367 5367 5368 5369 5370 5373 5375 5378
5554 5552 5549 5546 5542 5538 5534 5529 5523 5517 5510 5503 5495 5488 5481 5473 5465 5456 5448 5440 5433 5425 5417 5410 5403 5395 5389 5383 5377 5372 5368 5365 5363 5361 5360 5358 5358 5358 5359 5360 5361 5363 5365 5368
5545 5542 5540 5536 5533 5529 5524 5518 5512 5506 5499 5492 5485 5477 5470 5462 5454 5445 5437 5429 5421 5414 5406 5399 5392 5385 5379 5373 5368 5363 5360 5357 5354 5353 5351 5350 5350 5350 5350 5351 5353 5354 5356 5359
5535 5533 5530 5527 5523 5518 5513 5508 5502 5495 5488 5481 5474 5466 5458 5450 5442 5434 5426 5418 5410 5402 5395 5388 5381 5374 5368 5363 5358 5355 5351 5349 5346 5345 5343 5342 5342 5342 5342 5343 5345 5346 5348 5350
5525 5523 5520 5517 5513 5508 5503 5497 5491 5484 5477 5470 5462 5455 5447 5439 5430 5422 5414 5406 5398 5391 5383 5376 5370 5364 5358 5353 5349 5346 5343 5341 5339 5337 5336 5335 5334 5334 5335 5336 5337 5338 5340 5342